Date String (YYYY-MM-DD hh:mm:ss) UTC,Instrument flags,absolute air pressure of the measurement (hPa),sample flow rate (lpm),inlet stack bypass flow (lpm),air temperature of the measurement (°C),ambient temperature measured by the external sensor (°C),aerosol sample conditioner tube jacket temperature (°C),OPC LED temperature (°C),internal box temperature (°C),relative humidity of the measurement (%),span deviation,mass concentration of particles derived from Lorenz-Mie calculation of OPC scattering (μg/m³),mass concentration of particles derived from Lorenz-Mie calculation of OPC scattering (μg/m³),mass concentration of particles derived from Lorenz-Mie calculation of OPC scattering (μg/m³)
DateTimeUTC,F1_M11,P_M11,Q1_M11,Q2_M11,T1_M11,T2_M11,T3_M11,T4_M11,T5_M11,U1_M11,ZSPAN_M11,X0_M11,X2_M11,X1_M11
2023-07-06 20:00:00,SystemResetWarning,0832.0,5.00,000.00,031.8,028.4,000.0,039.5,031.8,33.2,-001.5,0017.14,0011.98,0011.39
2023-07-06 20:01:00,SystemResetWarning,0832.0,5.00,000.00,031.8,028.1,000.0,039.5,031.8,32.1,-001.5,0017.64,0012.03,0011.42
2023-07-06 20:02:00,SystemResetWarning,0832.0,4.99,000.00,031.7,026.5,000.0,039.4,031.6,31.8,-001.6,0017.73,0012.06,0011.47
2023-07-06 20:03:00,SystemResetWarning,0832.0,5.01,000.00,031.7,025.3,000.0,039.3,031.4,31.9,-001.6,0017.66,0012.07,0011.49
2023-07-06 20:04:00,SystemResetWarning,0831.9,5.01,000.00,031.6,025.1,000.0,039.2,031.2,32.4,-001.5,0016.97,0012.06,0011.48
2023-07-06 20:05:00,SystemResetWarning,0831.9,5.00,000.00,031.4,025.4,000.0,039.3,031.1,32.7,-001.7,0016.58,0011.97,0011.43
2023-07-06 20:06:00,SystemResetWarning,0831.9,5.00,000.00,031.2,025.9,000.0,039.3,031.1,33.0,-001.6,0016.38,0011.94,0011.42
2023-07-06 20:07:00,SystemResetWarning,0832.0,5.00,000.00,031.2,026.4,000.0,039.3,031.2,32.7,-001.6,0016.44,0011.98,0011.47
2023-07-06 20:08:00,SystemResetWarning,0832.0,5.00,000.00,031.1,026.8,000.0,039.3,031.3,33.5,-001.6,0016.64,0012.07,0011.55
2023-07-06 20:09:00,SystemResetWarning,0832.1,4.99,000.00,031.1,027.2,000.0,039.3,031.3,33.6,-001.6,0016.86,0012.12,0011.63
2023-07-06 20:10:00,SystemResetWarning,0832.1,4.99,000.00,031.1,027.5,000.0,039.3,031.4,33.8,-001.5,0017.10,0012.13,0011.67
2023-07-06 20:11:00,SystemResetWarning,0832.1,5.00,000.00,031.0,027.7,000.0,039.3,031.4,34.2,-001.4,0017.19,0012.21,0011.72
2023-07-06 20:12:00,SystemResetWarning,0832.1,5.00,000.00,031.0,028.0,000.0,039.3,031.5,34.8,-001.3,0016.83,0012.22,0011.76
2023-07-06 20:13:00,SystemResetWarning,0832.1,5.00,000.00,031.1,028.1,000.0,039.3,031.6,33.9,-001.1,0016.66,0012.23,0011.77
2023-07-06 20:14:00,SystemResetWarning,0832.0,4.99,000.00,031.1,028.3,000.0,039.3,031.7,33.5,-001.2,0016.79,0012.31,0011.84
2023-07-06 20:15:00,SystemResetWarning,0832.0,5.01,000.00,031.1,028.4,000.0,039.3,031.7,33.5,-001.2,0016.80,0012.35,0011.87
2023-07-06 20:16:00,SystemResetWarning,0832.0,5.00,000.00,031.2,027.2,000.0,039.2,031.6,33.0,-001.3,0017.15,0012.40,0011.91
2023-07-06 20:17:00,SystemResetWarning,0831.9,5.00,000.00,031.1,025.5,000.0,039.0,031.3,34.1,-001.3,0017.78,0012.42,0011.91
2023-07-06 20:18:00,SystemResetWarning,0831.9,5.01,000.00,031.0,025.0,000.0,038.9,031.2,34.0,-001.5,0018.00,0012.40,0011.91
2023-07-06 20:19:00,SystemResetWarning,0831.9,5.01,000.00,030.8,025.2,000.0,038.9,030.9,34.1,-001.6,0017.78,0012.35,0011.90
2023-07-06 20:20:00,SystemResetWarning,0831.9,5.01,000.00,030.7,025.6,000.0,038.9,030.9,34.4,-001.9,0017.79,0012.35,0011.91
2023-07-06 20:21:00,SystemResetWarning,0831.9,4.97,000.00,030.6,026.1,000.0,039.0,031.0,35.1,-002.0,0017.49,0012.42,0011.95
2023-07-06 20:22:00,SystemResetWarning,0831.9,5.04,000.00,030.7,026.5,000.0,039.0,031.1,35.1,-002.2,0017.43,0012.41,0011.96
2023-07-06 20:23:00,SystemResetWarning,0832.0,4.97,000.00,030.8,026.9,000.0,038.9,031.3,34.6,-002.3,0017.44,0012.39,0011.95
2023-07-06 20:24:00,SystemResetWarning,0832.0,5.02,000.00,030.9,027.3,000.0,038.9,031.4,33.8,-002.3,0018.04,0012.44,0011.98
2023-07-06 20:25:00,SystemResetWarning,0832.1,4.99,000.00,031.0,027.5,000.0,039.0,031.4,33.6,-002.4,0018.38,0012.45,0011.96
2023-07-06 20:26:00,SystemResetWarning,0832.1,4.99,000.00,031.0,027.8,000.0,039.0,031.4,34.8,-002.4,0018.53,0012.47,0011.93
2023-07-06 20:27:00,SystemResetWarning,0832.2,5.02,000.00,031.1,028.0,000.0,039.0,031.5,34.1,-002.4,0018.41,0012.41,0011.90
2023-07-06 20:28:00,SystemResetWarning,0832.2,4.98,000.00,031.2,028.2,000.0,039.1,031.6,33.5,-002.4,0017.70,0012.39,0011.88
2023-07-06 20:29:00,SystemResetWarning,0832.2,5.02,000.00,031.2,028.3,000.0,039.1,031.6,33.7,-002.5,0017.42,0012.40,0011.87
2023-07-06 20:30:00,SystemResetWarning,0832.2,5.00,000.00,031.2,028.4,000.0,039.1,031.7,34.2,-002.4,0017.31,0012.37,0011.82
2023-07-06 20:31:00,SystemResetWarning,0832.1,4.98,000.00,031.3,027.0,000.0,039.0,031.6,34.3,-002.2,0017.32,0012.35,0011.78
2023-07-06 20:32:00,SystemResetWarning,0832.0,5.00,000.00,031.2,025.4,000.0,039.0,031.3,33.6,-002.0,0017.31,0012.31,0011.71
2023-07-06 20:33:00,SystemResetWarning,0831.8,5.00,000.00,031.1,025.0,000.0,038.9,031.1,33.6,-001.9,0017.25,0012.21,0011.63
2023-07-06 20:34:00,SystemResetWarning,0831.6,5.01,000.00,030.9,025.2,000.0,038.9,030.8,33.8,-001.9,0017.77,0012.14,0011.57
2023-07-06 20:35:00,SystemResetWarning,0831.4,5.00,000.00,030.8,025.6,000.0,038.9,030.9,34.7,-002.0,0017.86,0012.07,0011.48
2023-07-06 20:36:00,SystemResetWarning,0831.3,5.01,000.00,030.7,026.1,000.0,039.0,031.0,34.6,-002.1,0017.20,0012.00,0011.43
2023-07-06 20:37:00,SystemResetWarning,0831.3,4.98,000.00,030.8,026.5,000.0,039.0,031.1,33.9,-002.0,0016.97,0011.92,0011.40
2023-07-06 20:38:00,SystemResetWarning,0831.2,5.00,000.00,030.8,026.9,000.0,039.0,031.2,34.0,-001.8,0016.95,0011.94,0011.43
2023-07-06 20:39:00,SystemResetWarning,0831.3,5.01,000.00,030.8,027.3,000.0,039.0,031.2,34.6,-002.0,0017.07,0011.99,0011.46
2023-07-06 20:40:00,SystemResetWarning,0831.2,4.99,000.00,030.8,027.5,000.0,039.0,031.3,35.0,-001.9,0017.06,0011.98,0011.44
2023-07-06 20:41:00,SystemResetWarning,0831.3,5.04,000.00,030.8,027.8,000.0,039.0,031.4,35.2,-001.8,0017.04,0011.95,0011.43
2023-07-06 20:42:00,SystemResetWarning,0831.3,4.95,000.00,031.0,028.0,000.0,039.0,031.5,35.2,-001.9,0017.06,0011.98,0011.48
2023-07-06 20:43:00,SystemResetWarning,0831.4,5.04,000.00,031.3,028.2,000.0,039.0,031.7,34.4,-002.1,0017.01,0011.98,0011.48
2023-07-06 20:44:00,SystemResetWarning,0831.5,4.97,000.00,031.4,028.3,000.0,039.1,031.8,33.4,-002.1,0016.97,0011.99,0011.49
2023-07-06 20:45:00,SystemResetWarning,0831.5,5.03,000.00,031.6,028.4,000.0,039.1,031.8,32.7,-002.0,0016.40,0012.00,0011.48
2023-07-06 20:46:00,SystemResetWarning,0831.5,4.97,000.00,031.6,027.9,000.0,039.1,031.8,32.4,-002.0,0015.92,0011.95,0011.44
2023-07-06 20:47:00,SystemResetWarning,0831.5,5.01,000.00,031.7,026.4,000.0,039.1,031.6,31.8,-001.8,0015.95,0011.90,0011.38
2023-07-06 20:48:00,SystemResetWarning,0831.5,5.01,000.00,031.6,025.9,000.0,039.0,031.4,32.6,-001.7,0015.92,0011.81,0011.26
2023-07-06 20:49:00,SystemResetWarning,0831.5,5.00,000.00,031.5,026.0,000.0,039.1,031.2,33.1,-001.9,0015.76,0011.67,0011.12
2023-07-06 20:50:00,SystemResetWarning,0831.5,5.00,000.00,031.4,026.4,000.0,039.2,031.3,32.8,-001.9,0015.56,0011.53,0011.01
2023-07-06 20:51:00,SystemResetWarning,0831.5,5.00,000.00,031.3,026.8,000.0,039.2,031.3,33.0,-001.7,0015.39,0011.42,0010.93
2023-07-06 20:52:00,SystemResetWarning,0831.6,5.01,000.00,031.3,027.1,000.0,039.3,031.4,32.7,-001.7,0015.75,0011.41,0010.90
2023-07-06 20:53:00,SystemResetWarning,0831.6,4.99,000.00,031.3,027.5,000.0,039.3,031.4,32.4,-001.8,0015.76,0011.35,0010.81
2023-07-06 20:54:00,SystemResetWarning,0831.7,4.99,000.00,031.2,027.7,000.0,039.3,031.5,33.0,-001.5,0015.58,0011.24,0010.74
2023-07-06 20:55:00,SystemResetWarning,0832.0,4.99,000.00,031.2,028.0,000.0,039.3,031.6,33.0,-001.3,0015.60,0011.22,0010.70
2023-07-06 20:56:00,SystemResetWarning,0831.9,5.00,000.00,031.2,028.2,000.0,039.4,031.6,33.1,-001.4,0015.72,0011.21,0010.70
2023-07-06 20:57:00,SystemResetWarning,0832.1,5.01,000.00,031.2,028.3,000.0,039.4,031.7,32.7,-001.2,0015.94,0011.23,0010.76
2023-07-06 20:58:00,SystemResetWarning,0832.2,5.00,000.00,031.2,027.4,000.0,039.3,031.6,32.5,-001.3,0015.99,0011.28,0010.83
2023-07-06 20:59:00,SystemResetWarning,0832.3,5.00,000.00,031.2,025.7,000.0,039.1,031.4,33.0,-001.4,0016.91,0011.36,0010.91
